Regional Weather Roundup
Issued by NWS Raleigh/Durham, NC

Home | Current Version | Previous Version | Text Only | Print | Product List | Glossary On
Versions: 1 2 3 4 5 6 7 8 9 10 11 12 13 14 15 16 17 18 19 20 21 22 23 24 25 26 27 28 29 30 31 32 33 34 35 36 37 38 39 40 41 42 43 44 45 46 47 48 49 50
999
ASUS42 KRAH 200110
RWRRAH
NORTH CAROLINA WEATHER ROUNDUP
NATIONAL WEATHER SERVICE RALEIGH NC
800 PM EST SUN NOV 19 2017

NOTE: "FAIR" INDICATES FEW OR NO CLOUDS BELOW 12,000 FEET WITH NO
SIGNIFICANT WEATHER AND/OR OBSTRUCTIONS TO VISIBILITY.

NCZ001-053-055-056-065-067-200200-
WESTERN NORTH CAROLINA

CITY           SKY/WX    TMP DP  RH WIND       PRES   REMARKS
ASHEVILLE      CLEAR     38  26  62 N15G24    30.04R WCI  29
JEFFERSON      CLEAR     32  22  67 NW24G33   29.94F WCI  18
HICKORY        PTCLDY    39  25  57 CALM      30.02R
RUTHERFORDTON  CLEAR     40  26  55 CALM      30.04S
MOUNT AIRY     PTCLDY    40  24  52 NW5       30.02S
BOONE          CLEAR     32  22  67 W25G43    29.94S WCI  19
$$

NCZ021-022-025-041-071-084-088-200200-
CENTRAL NORTH CAROLINA

CITY           SKY/WX    TMP DP  RH WIND       PRES   REMARKS
CHARLOTTE      CLEAR     43  29  57 N7        30.04R
GREENSBORO     CLEAR     41  24  51 NW17      30.02R
WINSTON-SALEM  PTCLDY    41  23  48 W6        30.03R
RALEIGH-DURHAM CLEAR     44  24  45 VRB5      30.01R
FORT BRAGG     CLEAR     48  27  43 N7        29.99R
FAYETTEVILLE   CLEAR     51  28  41 NW9       29.99R
BURLINGTON     CLEAR     42  27  55 NW5       30.02R
LAURINBURG     CLEAR     50  30  46 N7        30.01R
$$

NCZ011-015-027-028-043-044-047-080-103-200200-
NORTHEASTERN NORTH CAROLINA

CITY           SKY/WX    TMP DP  RH WIND       PRES   REMARKS
ROCKY MT-WILSO CLEAR     47  27  45 NW13      29.99R
GREENVILLE     CLEAR     50  30  46 NW9       29.98R
WASHINGTON     CLEAR     49  30  47 NW5       29.95R
ELIZABETH CITY PTCLDY    50  33  52 W13G23    29.92R
MANTEO         CLEAR     53  37  55 NW6       29.90R
CAPE HATTERAS  CLEAR     56  39  53 NW10G21   29.90R
$$

NCZ078-087-090-091-093-098-101-200200-
SOUTHEASTERN NORTH CAROLINA

CITY           SKY/WX    TMP DP  RH WIND       PRES   REMARKS
LUMBERTON      CLEAR     51  30  44 N8        29.99R
GOLDSBORO      CLEAR     50  27  41 NW14      29.96R
KINSTON        CLEAR     46  30  53 NW3       29.98R
KENANSVILLE    CLEAR     50  28  43 NW7       29.97R
NEW BERN       CLEAR     45  34  65 NW6       29.96R
CHERRY POINT   NOT AVBL
BEAUFORT       CLEAR     51  38  60 NW8       29.94R
JACKSONVILLE   CLEAR     49  34  56 NW8       29.95R
WILMINGTON     CLEAR     49  37  63 NW3       29.97R
$$





USA.gov is the U.S. government's official web portal to all federal, state and local government web resources and services.